Time,TemperatureF,DewpointF,PressureIn,WindDirection,WindDirectionDegrees,WindSpeedMPH,WindSpeedGustMPH,Humidity,HourlyPrecipIn,Conditions,Clouds,dailyrainin,SolarRadiationWatts/m^2,SoftwareType,DateUTC
2013-10-14 00:00:00,42.0,40.0,-100.00,SSE,159,1.0,2.0,91,-99.99,,,0.00,0.000000,,2013-10-14 07:00:00,
2013-10-14 00:52:00,42.0,40.0,-100.00,SSE,159,1.0,2.0,91,-99.99,,,0.00,0.000000,,2013-10-14 07:52:00,
2013-10-14 01:00:00,41.0,38.0,-100.00,South,174,1.0,3.0,91,-99.99,,,0.00,0.000000,,2013-10-14 08:00:00,
2013-10-14 01:42:00,41.0,38.0,-100.00,South,174,1.0,3.0,91,-99.99,,,0.00,0.000000,,2013-10-14 08:42:00,
2013-10-14 01:52:00,41.0,38.0,-100.00,South,174,1.0,3.0,91,-99.99,,,0.00,0.000000,,2013-10-14 08:52:00,
2013-10-14 02:00:00,40.0,38.0,-100.00,South,170,1.0,3.0,93,-99.99,,,0.00,0.000000,,2013-10-14 09:00:00,
2013-10-14 02:53:00,40.0,38.0,-100.00,South,170,1.0,3.0,93,-99.99,,,0.00,0.000000,,2013-10-14 09:53:00,
2013-10-14 03:00:00,38.0,37.0,-100.00,SSE,152,1.0,2.0,94,-99.99,,,0.00,0.000000,,2013-10-14 10:00:00,
2013-10-14 03:42:00,38.0,37.0,-100.00,SSE,152,1.0,2.0,94,-99.99,,,0.00,0.000000,,2013-10-14 10:42:00,
2013-10-14 03:53:00,38.0,37.0,-100.00,SSE,152,1.0,2.0,94,-99.99,,,0.00,0.000000,,2013-10-14 10:53:00,
2013-10-14 04:00:00,37.0,36.0,-100.00,SSW,194,1.0,2.0,94,-99.99,,,0.00,0.000000,,2013-10-14 11:00:00,
2013-10-14 04:42:00,37.0,36.0,-100.00,SSW,194,1.0,2.0,94,-99.99,,,0.00,0.000000,,2013-10-14 11:42:00,
2013-10-14 04:52:00,37.0,36.0,-100.00,SSW,194,1.0,2.0,94,-99.99,,,0.00,0.000000,,2013-10-14 11:52:00,
2013-10-14 05:00:00,37.0,35.0,-100.00,South,186,2.0,3.0,94,-99.99,,,0.00,0.000000,,2013-10-14 12:00:00,
2013-10-14 05:52:00,37.0,35.0,-100.00,South,186,2.0,3.0,94,-99.99,,,0.00,0.000000,,2013-10-14 12:52:00,
2013-10-14 06:00:00,37.0,35.0,-100.00,South,181,2.0,3.0,95,-99.99,,,0.00,0.000000,,2013-10-14 13:00:00,
2013-10-14 06:42:00,37.0,35.0,-100.00,South,181,2.0,3.0,95,-99.99,,,0.00,0.000000,,2013-10-14 13:42:00,
2013-10-14 06:52:00,37.0,35.0,-100.00,South,181,2.0,3.0,95,-99.99,,,0.00,0.000000,,2013-10-14 13:52:00,
2013-10-14 07:00:00,36.0,35.0,-100.00,SSE,147,2.0,4.0,95,-99.99,,,0.00,0.000000,,2013-10-14 14:00:00,
2013-10-14 07:42:00,36.0,35.0,-100.00,SSE,147,2.0,4.0,95,-99.99,,,0.00,0.000000,,2013-10-14 14:42:00,
2013-10-14 07:52:00,36.0,35.0,-100.00,SSE,147,2.0,4.0,95,-99.99,,,0.00,0.000000,,2013-10-14 14:52:00,
2013-10-14 08:00:00,36.0,35.0,-100.00,SSE,162,2.0,3.0,95,-99.99,,,0.00,22.660000,,2013-10-14 15:00:00,
2013-10-14 08:44:00,36.0,35.0,-100.00,SSE,162,2.0,3.0,95,-99.99,,,0.00,22.660000,,2013-10-14 15:44:00,
2013-10-14 08:54:00,36.0,35.0,-100.00,SSE,162,2.0,3.0,95,-99.99,,,0.00,22.660000,,2013-10-14 15:54:00,
2013-10-14 09:00:00,42.0,38.0,-100.00,SSE,148,1.0,2.0,86,-99.99,,,0.00,210.009995,,2013-10-14 16:00:00,
2013-10-14 09:42:00,42.0,38.0,-100.00,SSE,148,1.0,2.0,86,-99.99,,,0.00,210.009995,,2013-10-14 16:42:00,
2013-10-14 09:53:00,42.0,38.0,-100.00,SSE,148,1.0,2.0,86,-99.99,,,0.00,210.009995,,2013-10-14 16:53:00,
2013-10-14 10:00:00,48.0,41.0,-100.00,South,171,1.0,4.0,77,-99.99,,,0.00,357.029999,,2013-10-14 17:00:00,
2013-10-14 10:42:00,48.0,41.0,-100.00,South,171,1.0,4.0,77,-99.99,,,0.00,357.029999,,2013-10-14 17:42:00,
2013-10-14 10:52:00,48.0,41.0,-100.00,South,171,1.0,4.0,77,-99.99,,,0.00,357.029999,,2013-10-14 17:52:00,
2013-10-14 11:00:00,51.0,42.0,-100.00,NNE,25,2.0,5.0,73,-99.99,,,0.00,478.010010,,2013-10-14 18:00:00,
2013-10-14 11:52:00,51.0,42.0,-100.00,NNE,25,2.0,5.0,73,-99.99,,,0.00,478.010010,,2013-10-14 18:52:00,
2013-10-14 12:00:00,55.0,44.0,-100.00,SE,136,1.0,3.0,65,-99.99,,,0.00,561.580017,,2013-10-14 19:00:00,
2013-10-14 12:42:00,55.0,44.0,-100.00,SE,136,1.0,3.0,65,-99.99,,,0.00,561.580017,,2013-10-14 19:42:00,
2013-10-14 12:52:00,55.0,44.0,-100.00,SE,136,1.0,3.0,65,-99.99,,,0.00,561.580017,,2013-10-14 19:52:00,
2013-10-14 13:00:00,59.0,44.0,-100.00,NW,307,2.0,6.0,58,-99.99,,,0.00,589.820007,,2013-10-14 20:00:00,
2013-10-14 13:42:00,59.0,44.0,-100.00,NW,307,2.0,6.0,58,-99.99,,,0.00,589.820007,,2013-10-14 20:42:00,
2013-10-14 13:52:00,59.0,44.0,-100.00,NW,307,2.0,6.0,58,-99.99,,,0.00,589.820007,,2013-10-14 20:52:00,
2013-10-14 14:00:00,63.0,37.0,-100.00,ENE,75,4.0,11.0,37,-99.99,,,0.00,566.460022,,2013-10-14 21:00:00,
2013-10-14 14:44:00,63.0,37.0,-100.00,ENE,75,4.0,11.0,37,-99.99,,,0.00,566.460022,,2013-10-14 21:44:00,
2013-10-14 14:54:00,63.0,37.0,-100.00,ENE,75,4.0,11.0,37,-99.99,,,0.00,566.460022,,2013-10-14 21:54:00,
2013-10-14 16:00:00,64.0,35.0,-100.00,East,79,4.0,10.0,33,-99.99,,,0.00,362.369995,,2013-10-14 23:00:00,
2013-10-14 16:42:00,64.0,35.0,-100.00,East,79,4.0,10.0,33,-99.99,,,0.00,362.369995,,2013-10-14 23:42:00,
2013-10-14 16:52:00,64.0,35.0,-100.00,East,79,4.0,10.0,33,-99.99,,,0.00,362.369995,,2013-10-14 23:52:00,
2013-10-14 17:00:00,64.0,36.0,-100.00,ESE,105,2.0,7.0,36,-99.99,,,0.00,208.729996,,2013-10-15 00:00:00,
2013-10-14 17:42:00,64.0,36.0,-100.00,ESE,105,2.0,7.0,36,-99.99,,,0.00,208.729996,,2013-10-15 00:42:00,
2013-10-14 17:52:00,64.0,36.0,-100.00,ESE,105,2.0,7.0,36,-99.99,,,0.00,208.729996,,2013-10-15 00:52:00,
2013-10-14 18:00:00,59.0,36.0,-100.00,South,187,0.0,2.0,43,-99.99,,,0.00,25.570000,,2013-10-15 01:00:00,
2013-10-14 18:42:00,59.0,36.0,-100.00,South,187,0.0,2.0,43,-99.99,,,0.00,25.570000,,2013-10-15 01:42:00,
2013-10-14 18:52:00,59.0,36.0,-100.00,South,187,0.0,2.0,43,-99.99,,,0.00,25.570000,,2013-10-15 01:52:00,
2013-10-14 19:00:00,51.0,41.0,-100.00,SW,227,1.0,3.0,68,-99.99,,,0.00,0.000000,,2013-10-15 02:00:00,
2013-10-14 19:42:00,51.0,41.0,-100.00,SW,227,1.0,3.0,68,-99.99,,,0.00,0.000000,,2013-10-15 02:42:00,
2013-10-14 19:52:00,51.0,41.0,-100.00,SW,227,1.0,3.0,68,-99.99,,,0.00,0.000000,,2013-10-15 02:52:00,
2013-10-14 20:00:00,47.0,41.0,-100.00,SE,133,1.0,2.0,79,-99.99,,,0.00,0.000000,,2013-10-15 03:00:00,
2013-10-14 20:44:00,47.0,41.0,-100.00,SE,133,1.0,2.0,79,-99.99,,,0.00,0.000000,,2013-10-15 03:44:00,
2013-10-14 20:55:00,47.0,41.0,-100.00,SE,133,1.0,2.0,79,-99.99,,,0.00,0.000000,,2013-10-15 03:55:00,
2013-10-14 21:00:00,44.0,40.0,-100.00,SSW,211,1.0,2.0,87,-99.99,,,0.00,0.000000,,2013-10-15 04:00:00,
2013-10-14 21:43:00,44.0,40.0,-100.00,SSW,211,1.0,2.0,87,-99.99,,,0.00,0.000000,,2013-10-15 04:43:00,
2013-10-14 21:54:00,44.0,40.0,-100.00,SSW,211,1.0,2.0,87,-99.99,,,0.00,0.000000,,2013-10-15 04:54:00,
2013-10-14 22:00:00,42.0,39.0,-100.00,South,180,1.0,3.0,88,-99.99,,,0.00,0.000000,,2013-10-15 05:00:00,
2013-10-14 22:42:00,42.0,39.0,-100.00,South,180,1.0,3.0,88,-99.99,,,0.00,0.000000,,2013-10-15 05:42:00,
2013-10-14 22:53:00,42.0,39.0,-100.00,South,180,1.0,3.0,88,-99.99,,,0.00,0.000000,,2013-10-15 05:53:00,
2013-10-14 23:00:00,41.0,38.0,-100.00,SE,145,1.0,2.0,91,-99.99,,,0.00,0.000000,,2013-10-15 06:00:00,
2013-10-14 23:43:00,41.0,38.0,-100.00,SE,145,1.0,2.0,91,-99.99,,,0.00,0.000000,,2013-10-15 06:43:00,
2013-10-14 23:52:00,41.0,38.0,-100.00,SE,145,1.0,2.0,91,-99.99,,,0.00,0.000000,,2013-10-15 06:52:00,